FW9473 Weather Reports


time (UTC)temp
F
wind
direction
speed
knots
gust
knots
rain 1hr
in
rain 24hr
in
rain mn
in
humidity
%
barometer
mb
20260504044552 58 251 2.6 7.0 0.00 0.00 0.00 56 1020.1
20260504043050 59 0 0.9 7.0 0.00 0.00 0.00 56 1020.3
20260504041553 59 256 0.9 7.8 0.00 0.00 0.00 55 1020.2
20260504040049 60 235 1.7 7.8 0.00 0.00 0.00 53 1020.5
20260504034549 59 236 1.7 6.1 0.00 0.00 0.00 53 1020.4
20260504033054 59 211 1.7 7.0 0.00 0.00 0.00 52 1020.4
20260504031555 60 240 1.7 7.8 0.00 0.00 0.00 52 1020.3
20260504030050 60 255 1.7 5.2 0.00 0.00 0.00 51 1020.2
20260504024557 60 224 0.9 5.2 0.00 0.00 0.00 51 1020.4
20260504023046 60 253 1.7 4.3 0.00 0.00 0.00 51 1020.0
20260504021552 60 221 0.9 4.3 0.00 0.00 0.00 53 1019.9
20260504020050 59 0 0.9 5.2 0.00 0.00 0.00 57 1019.7
20260504014549 58 0 0.0 0.9 0.00 0.00 0.00 58 1019.6
20260504013103 58 0 0.0 0.0 0.00 0.00 0.00 57 1019.3
20260504011548 58 0 0.0 0.0 0.00 0.00 0.00 57 1019.4
20260504010052 59 0 0.0 0.0 0.00 0.00 0.00 56 1019.2
20260504004606 59 0 0.0 0.0 0.00 0.00 0.00 54 1019.1
20260504003046 60 0 0.0 0.9 0.00 0.00 0.00 54 1018.9
20260504001548 62 0 0.0 1.7 0.00 0.00 0.00 50 1018.8
20260504000054 64 0 0.0 2.6 0.00 0.00 0.00 48 1018.7
20260503234552 65 211 0.0 4.3 0.00 0.00 0.00 44 1018.6
20260503233050 67 0 0.9 5.2 0.00 0.00 0.00 43 1018.6
20260503231554 68 269 0.9 5.2 0.00 0.00 0.00 41 1018.7
20260503230052 68 0 0.0 5.2 0.00 0.00 0.00 40 1018.7
20260503224549 69 202 2.6 9.6 0.00 0.00 0.00 38 1018.9
20260503223053 69 213 0.9 7.0 0.00 0.00 0.00 40 1018.8
20260503221554 69 265 0.9 9.6 0.00 0.00 0.00 39 1018.9
20260503220059 69 0 2.6 7.8 0.00 0.00 0.00 38 1019.0
20260503214550 69 254 2.6 9.6 0.00 0.00 0.00 37 1019.1
20260503213053 69 251 3.5 7.8 0.00 0.00 0.00 37 1019.2
20260503211553 68 262 2.6 8.7 0.00 0.00 0.00 37 1019.4
20260503210047 68 283 1.7 8.7 0.00 0.00 0.00 37 1019.6
20260503204552 69 232 2.6 6.1 0.00 0.00 0.00 36 1019.7
20260503203050 68 0 1.7 7.8 0.00 0.00 0.00 41 1019.9
20260503201553 68 259 2.6 8.7 0.00 0.00 0.00 39 1020.3
20260503200049 68 323 1.7 7.8 0.00 0.00 0.00 40 1020.5
20260503194552 68 138 3.5 8.7 0.00 0.00 0.00 42 1020.8
20260503193056 67 67 3.5 7.8 0.00 0.00 0.00 45 1021.1
20260503191553 67 205 1.7 10.4 0.00 0.00 0.00 44 1021.5
20260503190052 67 242 2.6 10.4 0.00 0.00 0.00 50 1021.7
20260503184601 66 96 0.0 7.0 0.00 0.00 0.00 49 1021.7
20260503183048 65 277 1.7 7.8 0.00 0.00 0.00 51 1022.0
20260503181548 64 304 1.7 8.7 0.00 0.00 0.00 50 1022.1
20260503180049 63 270 4.3 8.7 0.00 0.00 0.00 52 1022.2
20260503174605 63 230 3.5 12.2 0.00 0.00 0.00 52 1022.3
20260503173049 63 151 3.5 9.6 0.00 0.00 0.00 52 1022.4
20260503171547 63 227 2.6 9.6 0.00 0.00 0.00 50 1022.7
20260503100106 42 0 0.0 0.0 0.00 0.00 0.00 96 1021.4
20260503081556 43 0 0.0 0.0 0.00 0.00 0.00 96 1020.6
20260503071554 45 0 0.0 0.0 0.00 0.00 0.00 96 1020.0